This is the latest recevied weather packets stored in our database for station/object OE9GTV. If no packets are shown the sender has not sent any weather packets the latest 10 day(s).
| Time | Temp. | Humidity | Pressure | Rain* | Wind** | Luminosity | Snow |
|---|---|---|---|---|---|---|---|
| 1777820473 | 25° C | 38% | 1008.7 hPa | 0 mm | - | 0 W/m² | - |
| 1777819874 | 25° C | 39% | 1008.8 hPa | 0 mm | - | 0 W/m² | - |
| 1777819274 | 24.44° C | 37% | 1009 hPa | 0 mm | - | 0 W/m² | - |
| 1777818674 | 24.44° C | 39% | 1009.1 hPa | 0 mm | - | 0 W/m² | - |
| 1777818073 | 23.89° C | 38% | 1009.1 hPa | 0 mm | - | 0 W/m² | - |
| 1777817473 | 24.44° C | 38% | 1009.3 hPa | 0 mm | - | 0 W/m² | - |
| 1777816873 | 24.44° C | 37% | 1009.2 hPa | 0 mm | - | 0 W/m² | - |
| 1777816273 | 24.44° C | 38% | 1009.3 hPa | 0 mm | - | 0 W/m² | - |
| 1777815673 | 23.89° C | 39% | 1009.3 hPa | 0 mm | - | 0 W/m² | - |
| 1777815073 | 24.44° C | 38% | 1009.3 hPa | 0 mm | - | 0 W/m² | - |
| 1777814473 | 24.44° C | 38% | 1009.4 hPa | 0 mm | - | 0 W/m² | - |
| 1777813873 | 24.44° C | 38% | 1009.7 hPa | 0 mm | - | 0 W/m² | - |
| 1777813273 | 24.44° C | 38% | 1009.8 hPa | 0 mm | - | 0 W/m² | - |
| 1777812673 | 24.44° C | 39% | 1009.9 hPa | 0 mm | - | 0 W/m² | - |
| 1777812073 | 24.44° C | 37% | 1009.9 hPa | 0 mm | - | 0 W/m² | - |
| 1777811473 | 25° C | 37% | 1009.9 hPa | 0 mm | - | 0 W/m² | - |
| 1777810873 | 24.44° C | 38% | 1010.1 hPa | 0 mm | - | 0 W/m² | - |
| 1777810274 | 24.44° C | 39% | 1010.2 hPa | 0 mm | - | 0 W/m² | - |
| 1777809673 | 23.89° C | 40% | 1010.2 hPa | 0 mm | - | 0 W/m² | - |
| 1777809073 | 23.33° C | 39% | 1010.4 hPa | 0 mm | - | 0 W/m² | - |
| 1777808472 | 22.78° C | 40% | 1010.4 hPa | 0 mm | - | 0 W/m² | - |
| 1777807872 | 22.78° C | 39% | 1010.5 hPa | 0 mm | - | 0 W/m² | - |
| 1777807272 | 23.33° C | 40% | 1010.6 hPa | 0 mm | - | 0 W/m² | - |
| 1777806672 | 22.78° C | 41% | 1010.7 hPa | 0 mm | - | 0 W/m² | - |
| 1777806072 | 22.78° C | 42% | 1010.8 hPa | 0 mm | - | 0 W/m² | - |
* Rain latest hour (hover to see other rain measurements)
** Current wind speed in m/s (hover to see current wind gust speed)